TimeEST,TemperatureF,Dew PointF,Humidity,Sea Level PressureIn,VisibilityMPH,Wind Direction,Wind SpeedMPH,Gust SpeedMPH,PrecipitationIn,Events,Conditions,WindDirDegrees,DateUTC
12:15 AM,57.2,48.2,72,29.80,10.0,South,9.2,-,N/A,,Clear,170,2013-01-30 05:15:00
12:35 AM,57.2,48.2,72,29.78,10.0,South,10.4,-,N/A,,Scattered Clouds,170,2013-01-30 05:35:00
12:55 AM,57.2,48.2,72,29.76,10.0,South,9.2,-,N/A,,Partly Cloudy,170,2013-01-30 05:55:00
1:35 AM,57.2,48.2,72,29.73,10.0,South,11.5,-,N/A,,Clear,170,2013-01-30 06:35:00
1:55 AM,57.2,48.2,72,29.72,10.0,SSE,8.1,-,N/A,,Clear,160,2013-01-30 06:55:00
2:15 AM,59.0,48.2,67,29.71,10.0,SSE,10.4,16.1,N/A,,Clear,160,2013-01-30 07:15:00
2:35 AM,57.2,46.4,67,29.70,10.0,South,11.5,18.4,N/A,,Clear,170,2013-01-30 07:35:00
2:55 AM,57.2,46.4,67,29.70,10.0,South,10.4,16.1,N/A,,Clear,170,2013-01-30 07:55:00
3:15 AM,59.0,46.4,63,29.68,10.0,South,10.4,-,N/A,,Clear,170,2013-01-30 08:15:00
3:35 AM,59.0,46.4,63,29.68,10.0,South,12.7,19.6,N/A,,Clear,170,2013-01-30 08:35:00
3:55 AM,59.0,46.4,63,29.65,10.0,South,10.4,-,N/A,,Clear,170,2013-01-30 08:55:00
4:15 AM,59.0,46.4,63,29.65,10.0,South,11.5,18.4,N/A,,Clear,180,2013-01-30 09:15:00
4:35 AM,59.0,46.4,63,29.63,10.0,South,12.7,18.4,N/A,,Clear,170,2013-01-30 09:35:00
4:55 AM,60.8,46.4,59,29.61,10.0,South,11.5,17.3,N/A,,Clear,170,2013-01-30 09:55:00
5:15 AM,60.8,46.4,59,29.60,10.0,South,9.2,-,N/A,,Clear,170,2013-01-30 10:15:00
5:35 AM,60.8,46.4,59,29.59,10.0,South,10.4,-,N/A,,Clear,170,2013-01-30 10:35:00
5:55 AM,60.8,46.4,59,29.58,10.0,South,15.0,-,N/A,,Clear,170,2013-01-30 10:55:00
6:15 AM,60.8,48.2,63,29.56,10.0,South,12.7,21.9,N/A,,Clear,170,2013-01-30 11:15:00
6:35 AM,60.8,48.2,63,29.56,10.0,South,12.7,19.6,N/A,,Clear,170,2013-01-30 11:35:00
6:55 AM,60.8,48.2,63,29.54,10.0,SSE,10.4,19.6,N/A,,Clear,160,2013-01-30 11:55:00
7:15 AM,60.8,48.2,63,29.53,10.0,SSE,9.2,-,N/A,,Clear,160,2013-01-30 12:15:00
7:35 AM,60.8,48.2,63,29.53,10.0,South,12.7,18.4,N/A,,Clear,170,2013-01-30 12:35:00
7:55 AM,60.8,50.0,68,29.51,10.0,South,13.8,21.9,N/A,,Clear,170,2013-01-30 12:55:00
8:15 AM,60.8,50.0,68,29.51,10.0,South,11.5,16.1,N/A,,Partly Cloudy,180,2013-01-30 13:15:00
8:35 AM,62.6,50.0,63,29.48,10.0,South,13.8,19.6,N/A,,Clear,170,2013-01-30 13:35:00
8:55 AM,62.6,51.8,68,29.47,10.0,South,11.5,23.0,N/A,,Clear,170,2013-01-30 13:55:00
9:15 AM,64.4,51.8,64,29.45,10.0,South,18.4,24.2,N/A,,Partly Cloudy,180,2013-01-30 14:15:00
9:35 AM,62.6,51.8,68,29.45,10.0,South,15.0,23.0,N/A,,Mostly Cloudy,180,2013-01-30 14:35:00
9:55 AM,62.6,51.8,68,29.43,10.0,South,15.0,23.0,N/A,,Mostly Cloudy,180,2013-01-30 14:55:00
10:15 AM,62.6,53.6,72,29.50,10.0,WSW,16.1,-,N/A,,Overcast,240,2013-01-30 15:15:00
10:35 AM,59.0,55.4,88,29.55,10.0,WSW,13.8,20.7,0.11,,Overcast,250,2013-01-30 15:35:00
10:55 AM,59.0,55.4,88,29.54,10.0,West,8.1,-,0.11,,Scattered Clouds,270,2013-01-30 15:55:00
11:15 AM,59.0,53.6,82,29.53,10.0,West,6.9,-,0.01,,Mostly Cloudy,270,2013-01-30 16:15:00
11:35 AM,59.0,53.6,82,29.53,10.0,WSW,10.4,-,0.01,,Scattered Clouds,240,2013-01-30 16:35:00
11:55 AM,59.0,53.6,82,29.51,10.0,SW,9.2,-,0.01,,Scattered Clouds,220,2013-01-30 16:55:00
12:15 PM,59.0,53.6,82,29.52,10.0,SW,11.5,18.4,N/A,,Mostly Cloudy,230,2013-01-30 17:15:00
12:35 PM,57.2,51.8,82,29.52,10.0,SW,15.0,23.0,0.01,,Overcast,220,2013-01-30 17:35:00
12:55 PM,57.2,53.6,88,29.51,10.0,SSW,9.2,18.4,0.02,,Overcast,210,2013-01-30 17:55:00
1:15 PM,57.2,51.8,82,29.51,10.0,SSW,12.7,17.3,N/A,,Mostly Cloudy,210,2013-01-30 18:15:00
1:35 PM,55.4,51.8,88,29.52,9.0,South,13.8,20.7,0.02,,Mostly Cloudy,190,2013-01-30 18:35:00
1:55 PM,55.4,51.8,88,29.50,10.0,South,17.3,21.9,0.05,,Overcast,190,2013-01-30 18:55:00
2:15 PM,55.4,51.8,88,29.49,10.0,South,12.7,19.6,0.03,,Overcast,170,2013-01-30 19:15:00
2:35 PM,55.4,51.8,88,29.49,10.0,South,12.7,19.6,0.06,,Overcast,170,2013-01-30 19:35:00
2:55 PM,53.6,51.8,94,29.49,10.0,South,11.5,-,0.10,,Overcast,180,2013-01-30 19:55:00
3:15 PM,53.6,51.8,94,29.49,10.0,South,12.7,21.9,0.06,,Overcast,170,2013-01-30 20:15:00
3:35 PM,53.6,51.8,94,29.47,10.0,SSE,12.7,-,0.08,,Overcast,160,2013-01-30 20:35:00
3:55 PM,53.6,51.8,94,29.46,10.0,South,10.4,19.6,0.12,,Overcast,180,2013-01-30 20:55:00
4:15 PM,53.6,50.0,88,29.46,10.0,South,12.7,21.9,0.02,,Overcast,180,2013-01-30 21:15:00
4:35 PM,53.6,51.8,94,29.44,10.0,South,13.8,24.2,0.04,,Mostly Cloudy,170,2013-01-30 21:35:00
4:55 PM,53.6,50.0,88,29.42,10.0,South,15.0,20.7,0.07,,Overcast,170,2013-01-30 21:55:00
5:15 PM,53.6,51.8,94,29.40,10.0,SSE,12.7,19.6,0.01,,Mostly Cloudy,160,2013-01-30 22:15:00
5:35 PM,53.6,51.8,94,29.40,10.0,South,15.0,-,0.03,,Mostly Cloudy,170,2013-01-30 22:35:00
5:55 PM,53.6,51.8,94,29.36,10.0,SSE,13.8,20.7,0.05,,Overcast,150,2013-01-30 22:55:00
6:15 PM,53.6,51.8,94,29.37,10.0,SSE,10.4,18.4,0.02,,Overcast,160,2013-01-30 23:15:00
6:35 PM,53.6,51.8,94,29.35,10.0,South,15.0,19.6,0.03,,Overcast,170,2013-01-30 23:35:00
6:55 PM,53.6,51.8,94,29.34,10.0,SSE,10.4,-,0.04,,Overcast,160,2013-01-30 23:55:00
7:15 PM,53.6,51.8,94,29.32,10.0,SSE,10.4,18.4,0.01,,Overcast,160,2013-01-31 00:15:00
7:35 PM,53.6,51.8,94,29.30,10.0,South,10.4,18.4,0.02,,Overcast,170,2013-01-31 00:35:00
7:55 PM,53.6,51.8,94,29.29,10.0,South,10.4,17.3,0.04,,Overcast,180,2013-01-31 00:55:00
8:15 PM,53.6,51.8,94,29.28,10.0,South,13.8,19.6,0.02,,Overcast,190,2013-01-31 01:15:00
8:35 PM,53.6,51.8,94,29.28,5.0,SW,10.4,16.1,0.12,,Overcast,220,2013-01-31 01:35:00
8:55 PM,53.6,51.8,94,29.26,10.0,SSW,12.7,26.5,0.16,,Overcast,200,2013-01-31 01:55:00
9:15 PM,53.6,48.2,82,29.24,10.0,South,15.0,24.2,N/A,,Mostly Cloudy,190,2013-01-31 02:15:00
9:35 PM,53.6,48.2,82,29.24,10.0,South,10.4,-,0.02,,Overcast,190,2013-01-31 02:35:00
9:55 PM,51.8,48.2,88,29.25,10.0,SW,20.7,29.9,0.04,,Mostly Cloudy,220,2013-01-31 02:55:00
10:15 PM,51.8,48.2,88,29.25,10.0,SW,15.0,27.6,0.02,,Mostly Cloudy,220,2013-01-31 03:15:00
10:35 PM,51.8,46.4,82,29.23,10.0,SW,18.4,27.6,0.03,,Mostly Cloudy,220,2013-01-31 03:35:00
10:55 PM,50.0,44.6,82,29.22,10.0,SW,18.4,28.8,0.03,,Scattered Clouds,220,2013-01-31 03:55:00
11:15 PM,50.0,44.6,82,29.24,10.0,SW,17.3,25.3,0.01,,Mostly Cloudy,220,2013-01-31 04:15:00
11:35 PM,48.2,44.6,87,29.23,10.0,SW,17.3,25.3,0.02,,Overcast,220,2013-01-31 04:35:00
11:55 PM,48.2,42.8,82,29.25,10.0,SSW,20.7,27.6,0.02,,Overcast,210,2013-01-31 04:55:00